QPF
0.00 0.00 0.00 0.00 0.00 0.00 0.00 0.00 0.00 0.00 0.00 0.00 0.00 0.00 0.00 0.00 0.00 0.00 0.00 0.00 0.01 0.00 0.00 0.00 0.00 0.01 0.10 0.34 0.56 0.56 0.39 0.24 0.14 0.10 0.09 0.09 0.08 0.06
0.00 0.00 0.00 0.00 0.00 0.00 0.00 0.00 0.00 0.00 0.00 0.00 0.00 0.00 0.00 0.00 0.00 0.00 0.00 0.00 0.01 0.01 0.00 0.01 0.00 0.01 0.10 0.26 0.34 0.36 0.28 0.23 0.18 0.15 0.10 0.08 0.08 0.06
0.00 0.00 0.00 0.00 0.00 0.00 0.00 0.00 0.00 0.01 0.01 0.00 0.00 0.00 0.00 0.00 0.00 0.00 0.00 0.00 0.00 0.01 0.00 0.00 0.00 0.00 0.03 0.19 0.51 0.50 0.23 0.15 0.15 0.15 0.11 0.08 0.08 0.06
0.00 0.00 0.00 0.00 0.00 0.00 0.00 0.00 0.00 0.00 0.00 0.00 0.00 0.00 0.00 0.00 0.00 0.00 0.00 0.00 0.01 0.01 0.00 0.00 0.00 0.00 0.04 0.16 0.35 0.38 0.30 0.14 0.11 0.13 0.09 0.07 0.07 0.06
0.00 0.00 0.00 0.00 0.00 0.00 0.00 0.00 0.00 0.00 0.00 0.00 0.00 0.00 0.00 0.00 0.00 0.00 0.00 0.00 0.00 0.00 0.00 0.00 0.00 0.00 0.03 0.17 0.26 0.42 0.28 0.15 0.10 0.08 0.08 0.09 0.07 0.04
0.00 0.00 0.00 0.00 0.00 0.00 0.00 0.00 0.00 0.00 0.00 0.00 0.00 0.00 0.00 0.00 0.00 0.00 0.00 0.00 0.00 0.00 0.00 0.00 0.00 0.00 0.02 0.07 0.16 0.22 0.21 0.12 0.09 0.07 0.06 0.08 0.05 0.02
0.00 0.00 0.00 0.00 0.00 0.00 0.00 0.00 0.00 0.00 0.00 0.00 0.01 0.00 0.00 0.00 0.00 0.00 0.00 0.00 0.04 0.05 0.04 0.01 0.00 0.01 0.07 0.10 0.21 0.15 0.15 0.15 0.10 0.07 0.06 0.04 0.02 0.01
0.00 0.00 0.00 0.00 0.00 0.00 0.00 0.00 0.00 0.00 0.01 0.00 0.00 0.01 0.00 0.00 0.01 0.01 0.00 0.01 0.04 0.07 0.06 0.04 0.04 0.05 0.09 0.18 0.28 0.28 0.22 0.19 0.16 0.08 0.06 0.03 0.01 0.01
0.00 0.00 0.00 0.00 0.00 0.00 0.00 0.00 0.00 0.01 0.02 0.03 0.02 0.01 0.01 0.02 0.04 0.02 0.01 0.01 0.03 0.07 0.09 0.08 0.08 0.12 0.22 0.26 0.28 0.28 0.30 0.28 0.20 0.15 0.10 0.03 0.01 0.00
0.00 0.00 0.00 0.00 0.00 0.00 0.00 0.00 0.00 0.00 0.01 0.02 0.01 0.01 0.04 0.06 0.03 0.02 0.01 0.03 0.05 0.12 0.09 0.06 0.14 0.16 0.23 0.31 0.24 0.32 0.32 0.26 0.21 0.13 0.08 0.04 0.01 0.00
0.00 0.00 0.00 0.00 0.00 0.00 0.00 0.00 0.00 0.00 0.02 0.03 0.01 0.04 0.07 0.04 0.03 0.03 0.02 0.02 0.05 0.10 0.08 0.07 0.11 0.18 0.23 0.31 0.29 0.29 0.30 0.24 0.16 0.10 0.05 0.01 0.00 0.00
0.00 0.00 0.00 0.00 0.00 0.00 0.00 0.00 0.00 0.00 0.00 0.01 0.01 0.01 0.01 0.01 0.02 0.01 0.01 0.01 0.01 0.04 0.04 0.07 0.06 0.03 0.17 0.31 0.34 0.29 0.27 0.21 0.13 0.08 0.04 0.01 0.00 0.00
0.00 0.00 0.00 0.00 0.00 0.00 0.00 0.00 0.00 0.01 0.02 0.01 0.00 0.01 0.00 0.02 0.02 0.02 0.01 0.01 0.01 0.00 0.00 0.02 0.04 0.05 0.06 0.19 0.26 0.22 0.17 0.17 0.13 0.10 0.06 0.02 0.01 0.00
0.00 0.00 0.00 0.00 0.00 0.00 0.00 0.00 0.00 0.01 0.01 0.00 0.01 0.02 0.02 0.02 0.03 0.03 0.02 0.02 0.02 0.02 0.06 0.05 0.05 0.04 0.03 0.05 0.12 0.17 0.14 0.10 0.07 0.07 0.05 0.02 0.01 0.00
0.00 0.00 0.00 0.00 0.00 0.00 0.00 0.00 0.00 0.00 0.00 0.01 0.02 0.03 0.04 0.05 0.04 0.05 0.03 0.01 0.02 0.05 0.05 0.04 0.02 0.05 0.05 0.05 0.06 0.07 0.07 0.11 0.09 0.07 0.04 0.01 0.01 0.01
0.00 0.00 0.00 0.00 0.00 0.00 0.00 0.00 0.00 0.00 0.00 0.02 0.01 0.01 0.01 0.01 0.02 0.01 0.01 0.01 0.01 0.03 0.03 0.02 0.04 0.03 0.05 0.06 0.07 0.08 0.05 0.07 0.09 0.08 0.03 0.01 0.01 0.01
0.00 0.00 0.00 0.00 0.00 0.00 0.00 0.00 0.00 0.00 0.00 0.00 0.01 0.02 0.02 0.02 0.02 0.01 0.01 0.01 0.01 0.01 0.03 0.04 0.04 0.03 0.03 0.04 0.07 0.07 0.08 0.08 0.09 0.07 0.02 0.01 0.03 0.02
0.00 0.00 0.00 0.00 0.00 0.00 0.00 0.00 0.00 0.00 0.00 0.00 0.00 0.00 0.01 0.01 0.03 0.03 0.02 0.01 0.01 0.02 0.02 0.03 0.02 0.04 0.08 0.11 0.06 0.05 0.05 0.06 0.08 0.06 0.02 0.03 0.06 0.04
0.00 0.00 0.00 0.00 0.00 0.00 0.00 0.00 0.00 0.00 0.00 0.00 0.00 0.00 0.00 0.00 0.01 0.02 0.04 0.04 0.04 0.02 0.02 0.02 0.01 0.00 0.02 0.02 0.09 0.06 0.03 0.05 0.06 0.07 0.06 0.05 0.04 0.02
0.00 0.00 0.00 0.00 0.00 0.00 0.00 0.00 0.00 0.00 0.00 0.00 0.00 0.01 0.01 0.01 0.01 0.02 0.02 0.02 0.02 0.03 0.03 0.03 0.03 0.02 0.01 0.02 0.04 0.06 0.03 0.05 0.04 0.05 0.06 0.06 0.05 0.02
0.00 0.00 0.00 0.00 0.00 0.00 0.00 0.00 0.00 0.00 0.00 0.00 0.00 0.01 0.02 0.02 0.02 0.02 0.02 0.02 0.02 0.03 0.04 0.06 0.04 0.02 0.02 0.01 0.03 0.08 0.10 0.06 0.03 0.02 0.03 0.03 0.04 0.06
0.00 0.00 0.00 0.00 0.00 0.00 0.00 0.00 0.00 0.00 0.00 0.00 0.00 0.00 0.00 0.01 0.02 0.03 0.03 0.02 0.02 0.01 0.02 0.04 0.04 0.03 0.02 0.01 0.02 0.03 0.08 0.12 0.10 0.07 0.04 0.02 0.03 0.03
0.00 0.00 0.00 0.00 0.00 0.00 0.00 0.00 0.00 0.00 0.00 0.00 0.00 0.00 0.00 0.01 0.01 0.01 0.01 0.01 0.01 0.02 0.03 0.04 0.06 0.05 0.05 0.04 0.03 0.04 0.04 0.05 0.06 0.06 0.07 0.05 0.01 0.00
MSLP
1017.35 1017.28 1017.41 1017.30 1017.16 1017.10 1017.02 1016.87 1016.35 1013.61 1012.71 1012.84 1012.74 1012.56 1012.14 1011.78 1011.29 1010.73 1010.06 1009.42 1009.11 1008.86 1008.78 1008.77 1008.69 1008.73 1008.84 1009.01 1009.12 1009.30 1010.53 1011.72 1012.55 1013.93 1015.05 1016.06 1016.95 1018.04
1017.40 1017.47 1017.32 1017.26 1017.23 1017.07 1016.94 1016.74 1016.46 1015.58 1013.05 1013.25 1012.76 1012.53 1012.22 1011.82 1011.24 1010.82 1010.19 1009.58 1009.14 1008.51 1008.40 1008.44 1008.53 1008.54 1008.67 1008.75 1008.70 1008.91 1010.23 1011.43 1012.08 1013.45 1014.73 1015.64 1016.77 1017.80
1017.52 1017.48 1017.55 1017.49 1017.39 1017.24 1017.08 1016.70 1016.20 1015.75 1014.12 1012.39 1012.66 1012.13 1011.61 1011.16 1010.47 1010.14 1009.62 1009.38 1009.25 1008.47 1008.15 1007.99 1008.24 1008.37 1008.46 1008.45 1008.75 1009.20 1009.34 1010.84 1011.42 1012.99 1014.38 1015.54 1016.57 1017.36
1017.51 1017.58 1017.64 1017.43 1017.30 1017.04 1016.60 1016.15 1015.67 1015.18 1014.45 1012.50 1012.17 1011.53 1011.19 1010.79 1010.17 1009.86 1009.45 1008.70 1008.76 1008.26 1007.65 1007.65 1007.82 1007.89 1007.88 1007.68 1007.87 1008.18 1009.01 1010.10 1011.26 1012.57 1013.59 1015.34 1016.41 1017.38
1017.53 1017.47 1017.49 1017.21 1016.85 1016.44 1016.01 1015.59 1015.20 1014.67 1014.12 1013.13 1011.66 1011.31 1010.95 1010.43 1010.02 1009.14 1008.87 1008.34 1008.04 1007.88 1007.29 1007.21 1007.36 1007.35 1007.61 1007.43 1007.20 1007.56 1008.45 1009.84 1011.29 1012.27 1013.57 1015.07 1016.18 1017.59
1017.43 1017.24 1016.85 1016.81 1016.42 1015.91 1015.47 1015.23 1014.90 1014.42 1013.72 1012.71 1011.37 1010.57 1010.31 1009.76 1009.79 1009.25 1008.63 1008.21 1007.76 1007.29 1006.54 1006.54 1006.74 1007.12 1007.06 1007.26 1007.50 1007.68 1008.58 1009.87 1011.21 1012.32 1013.70 1015.01 1016.23 1017.57
1017.14 1016.81 1016.41 1016.27 1015.91 1015.63 1015.41 1015.02 1014.53 1013.87 1013.06 1012.04 1010.98 1010.25 1009.38 1009.17 1008.96 1008.59 1008.77 1008.26 1007.74 1007.23 1006.22 1006.52 1006.56 1006.50 1006.23 1006.38 1006.82 1007.54 1008.80 1010.21 1011.37 1013.00 1014.22 1015.43 1016.82 1018.05
1016.60 1016.40 1016.14 1015.84 1015.31 1015.05 1014.76 1014.48 1014.10 1013.24 1012.19 1011.39 1010.45 1009.82 1009.00 1009.10 1008.47 1008.28 1008.59 1008.55 1007.97 1007.14 1006.96 1007.25 1006.51 1006.49 1006.25 1006.30 1006.90 1007.72 1008.93 1010.32 1012.06 1013.24 1014.63 1015.98 1017.50 1018.48
1016.36 1016.12 1015.65 1015.51 1015.10 1014.67 1014.10 1013.64 1013.00 1012.14 1011.17 1010.48 1009.41 1008.47 1008.34 1008.49 1008.39 1008.06 1008.13 1008.27 1008.53 1008.14 1007.74 1008.37 1008.01 1007.60 1007.50 1007.69 1008.09 1008.42 1009.95 1011.35 1013.08 1014.29 1015.58 1017.01 1018.22 1019.17
1016.07 1016.00 1015.69 1015.40 1015.05 1014.55 1013.99 1013.16 1012.21 1011.29 1010.15 1009.33 1008.20 1007.04 1007.09 1007.66 1008.23 1007.74 1007.78 1008.61 1008.90 1008.71 1008.57 1009.78 1009.70 1009.45 1009.54 1009.90 1008.76 1009.94 1011.48 1012.90 1013.93 1015.44 1016.70 1017.88 1019.05 1020.12
1015.79 1015.71 1015.62 1015.35 1014.76 1014.37 1013.78 1012.73 1012.05 1010.94 1009.80 1008.67 1007.49 1006.28 1006.53 1007.41 1008.00 1007.88 1008.17 1008.76 1009.35 1009.75 1009.94 1010.17 1011.09 1011.04 1011.71 1012.28 1012.28 1011.69 1012.98 1014.01 1015.51 1016.75 1017.86 1019.04 1019.96 1020.91
1015.61 1015.47 1015.38 1014.96 1014.53 1014.16 1013.27 1012.76 1012.00 1011.13 1009.78 1008.71 1008.31 1007.56 1007.06 1007.36 1007.91 1007.70 1008.12 1008.86 1009.45 1010.31 1010.65 1011.08 1011.64 1011.76 1013.83 1014.67 1014.59 1013.69 1015.02 1015.74 1016.68 1017.76 1018.78 1019.89 1020.88 1021.84
1015.52 1015.31 1014.95 1014.64 1014.34 1013.60 1013.18 1012.95 1012.33 1011.40 1010.31 1009.55 1009.48 1008.62 1008.10 1007.89 1008.28 1008.33 1008.50 1008.84 1009.35 1009.97 1010.39 1010.60 1011.85 1012.20 1013.12 1015.16 1015.84 1015.88 1016.34 1017.46 1018.17 1019.05 1020.02 1020.93 1021.45 1022.13
1015.35 1015.05 1014.86 1014.55 1014.01 1013.37 1013.25 1012.98 1012.23 1011.54 1010.57 1010.17 1010.03 1009.92 1009.48 1009.02 1009.19 1009.34 1009.56 1009.69 1009.76 1010.02 1010.78 1010.81 1011.69 1012.26 1012.88 1014.94 1016.16 1017.44 1018.00 1018.59 1019.05 1020.23 1021.10 1021.55 1022.28 1022.90
1015.09 1014.96 1014.66 1014.32 1013.94 1013.58 1013.56 1013.07 1012.30 1011.84 1011.47 1011.12 1010.95 1010.75 1010.51 1010.18 1010.07 1010.33 1010.55 1010.65 1010.75 1011.21 1011.47 1011.78 1012.21 1012.89 1013.73 1014.42 1015.61 1017.41 1018.41 1019.80 1020.23 1020.73 1021.38 1021.97 1022.61 1023.52
1015.10 1014.98 1014.88 1014.34 1014.22 1014.04 1013.88 1013.31 1012.63 1012.34 1012.10 1012.38 1011.78 1011.71 1011.44 1011.05 1010.88 1011.10 1011.25 1011.58 1011.80 1012.36 1012.61 1012.87 1013.24 1013.62 1014.43 1015.43 1016.23 1017.50 1018.66 1019.50 1020.68 1021.20 1021.80 1022.87 1023.51 1023.93
1015.07 1015.10 1015.09 1014.86 1014.77 1014.41 1014.28 1013.64 1012.98 1013.09 1012.81 1012.72 1012.53 1012.52 1012.35 1012.10 1011.83 1011.89 1012.00 1012.12 1012.44 1013.18 1013.56 1014.00 1014.30 1014.68 1015.28 1015.52 1016.88 1018.09 1018.92 1019.93 1020.87 1021.50 1022.38 1023.11 1023.73 1024.28
1015.32 1015.57 1015.51 1015.58 1015.25 1015.05 1014.84 1013.98 1013.71 1013.86 1013.67 1013.14 1012.93 1013.10 1013.08 1012.99 1012.90 1012.72 1012.70 1012.91 1013.23 1013.70 1014.13 1014.65 1015.03 1015.59 1016.33 1017.32 1017.70 1018.28 1019.34 1020.15 1021.21 1022.05 1022.90 1023.36 1024.05 1024.61
1015.69 1015.86 1015.96 1015.94 1015.76 1015.62 1015.20 1014.48 1014.39 1014.33 1014.04 1013.65 1013.52 1013.60 1013.56 1013.63 1013.64 1013.63 1013.53 1013.74 1014.10 1014.37 1014.79 1015.22 1015.50 1015.75 1016.60 1017.50 1018.49 1018.84 1019.22 1020.44 1021.39 1022.43 1023.00 1023.51 1024.17 1025.00
1016.02 1016.16 1016.23 1016.20 1016.24 1016.04 1015.54 1014.96 1014.96 1015.06 1014.67 1014.25 1013.94 1014.00 1014.07 1014.17 1014.28 1014.37 1014.38 1014.38 1014.67 1015.05 1015.46 1015.84 1016.09 1016.27 1016.55 1017.48 1018.23 1019.25 1019.64 1020.45 1021.32 1022.24 1023.06 1023.81 1024.51 1025.15
1016.47 1016.53 1016.53 1016.64 1016.69 1016.28 1015.99 1015.63 1015.42 1015.43 1015.18 1014.87 1014.54 1014.47 1014.41 1014.58 1014.85 1015.06 1015.23 1015.30 1015.35 1015.54 1015.91 1016.25 1016.70 1016.97 1017.36 1017.73 1018.78 1019.77 1020.36 1020.81 1021.36 1021.97 1022.76 1023.69 1024.56 1025.38
1016.93 1016.91 1016.87 1016.91 1016.86 1016.62 1016.35 1016.33 1016.12 1015.97 1015.70 1015.50 1015.27 1015.20 1015.00 1014.99 1015.32 1015.64 1015.93 1016.11 1016.24 1016.26 1016.46 1016.87 1017.26 1017.62 1018.04 1018.59 1019.52 1020.22 1020.87 1021.53 1022.03 1022.60 1023.14 1023.35 1024.15 1025.06
1017.56 1017.61 1017.53 1017.63 1017.33 1016.90 1016.63 1016.76 1016.72 1016.59 1016.44 1016.15 1015.98 1015.99 1015.87 1015.95 1015.96 1016.15 1016.50 1016.78 1016.92 1017.07 1017.20 1017.48 1017.83 1018.30 1018.90 1019.52 1020.17 1021.13 1021.83 1022.32 1022.94 1023.53 1024.09 1024.02 1024.20 1024.48
Thickness
5558 5555 5549 5545 5542 5537 5533 5529 5529 5552 5558 5545 5530 5519 5509 5500 5496 5493 5497 5501 5500 5502 5501 5501 5503 5505 5504 5503 5502 5505 5506 5501 5499 5495 5491 5489 5488 5483
5545 5540 5537 5532 5527 5524 5519 5515 5510 5512 5533 5518 5512 5499 5487 5480 5478 5472 5475 5479 5480 5487 5487 5487 5489 5493 5493 5491 5495 5495 5498 5492 5492 5485 5482 5483 5475 5473
5531 5528 5522 5517 5513 5508 5503 5500 5496 5491 5500 5510 5489 5479 5473 5469 5468 5466 5467 5466 5463 5470 5472 5474 5474 5477 5481 5483 5481 5483 5490 5483 5486 5480 5474 5469 5465 5464
5519 5514 5508 5505 5499 5496 5493 5488 5484 5478 5474 5484 5473 5467 5461 5456 5457 5456 5454 5456 5451 5454 5459 5459 5460 5463 5470 5477 5479 5482 5481 5479 5480 5474 5471 5462 5459 5452
5507 5502 5496 5493 5490 5486 5482 5477 5471 5464 5458 5455 5460 5453 5448 5446 5445 5448 5442 5443 5442 5441 5445 5447 5448 5451 5455 5464 5474 5473 5470 5471 5466 5468 5463 5455 5451 5440
5495 5492 5490 5483 5480 5477 5472 5465 5458 5451 5443 5441 5445 5445 5440 5438 5433 5432 5431 5432 5432 5433 5437 5438 5439 5440 5446 5451 5459 5464 5463 5460 5458 5458 5453 5448 5442 5431
5485 5483 5481 5475 5470 5464 5458 5451 5445 5441 5435 5432 5433 5434 5437 5432 5428 5427 5419 5421 5422 5423 5430 5428 5430 5433 5440 5446 5452 5455 5453 5450 5448 5442 5441 5437 5427 5420
5477 5473 5469 5465 5462 5454 5447 5439 5434 5431 5429 5425 5425 5425 5426 5420 5421 5419 5411 5406 5411 5414 5414 5411 5419 5422 5429 5438 5443 5445 5443 5440 5436 5432 5429 5423 5413 5411
5468 5462 5460 5454 5451 5446 5440 5434 5429 5425 5424 5421 5424 5426 5420 5413 5411 5412 5407 5402 5394 5394 5397 5392 5398 5407 5415 5419 5424 5430 5429 5427 5421 5418 5411 5403 5400 5398
5457 5451 5447 5442 5438 5434 5431 5427 5425 5424 5422 5420 5425 5430 5424 5414 5406 5407 5402 5389 5383 5382 5385 5378 5383 5389 5393 5397 5414 5415 5412 5408 5408 5401 5394 5388 5384 5381
5447 5441 5435 5430 5428 5425 5422 5420 5415 5415 5415 5418 5423 5428 5421 5410 5402 5400 5393 5385 5377 5374 5375 5378 5372 5375 5374 5378 5387 5399 5395 5395 5388 5382 5376 5370 5368 5365
5436 5431 5426 5422 5419 5416 5415 5411 5409 5408 5411 5413 5409 5412 5411 5406 5399 5398 5389 5380 5376 5372 5369 5368 5368 5372 5357 5360 5366 5379 5373 5373 5370 5366 5363 5357 5351 5349
5424 5421 5417 5414 5411 5411 5408 5402 5399 5399 5402 5401 5395 5397 5399 5398 5392 5388 5384 5381 5377 5372 5369 5371 5363 5366 5365 5354 5354 5357 5357 5354 5353 5350 5345 5338 5338 5338
5414 5411 5407 5405 5405 5406 5399 5394 5395 5394 5395 5391 5387 5383 5384 5384 5381 5378 5375 5373 5372 5373 5368 5372 5368 5368 5368 5354 5348 5341 5340 5340 5339 5333 5328 5327 5325 5325
5404 5402 5400 5399 5400 5397 5390 5388 5390 5388 5385 5379 5375 5373 5373 5374 5372 5369 5367 5367 5365 5363 5363 5364 5364 5362 5359 5356 5348 5335 5330 5322 5321 5319 5318 5318 5315 5311
5395 5393 5391 5393 5391 5387 5383 5382 5384 5381 5377 5369 5368 5363 5362 5364 5364 5361 5360 5358 5358 5353 5353 5353 5352 5352 5347 5342 5338 5330 5323 5319 5313 5310 5306 5300 5299 5299
5388 5386 5384 5383 5380 5379 5375 5377 5378 5373 5369 5364 5362 5356 5354 5353 5353 5352 5351 5351 5349 5346 5344 5341 5340 5338 5336 5336 5327 5320 5315 5309 5304 5301 5295 5292 5289 5288
5380 5374 5369 5370 5370 5368 5365 5370 5368 5362 5359 5358 5356 5350 5347 5343 5340 5340 5339 5338 5336 5334 5333 5330 5329 5325 5321 5314 5313 5310 5303 5300 5293 5289 5283 5282 5280 5280
5368 5366 5363 5361 5359 5356 5357 5360 5357 5352 5350 5350 5346 5341 5338 5334 5331 5328 5327 5325 5322 5321 5319 5317 5317 5317 5310 5304 5299 5296 5295 5288 5283 5278 5276 5274 5271 5267
5360 5357 5354 5352 5348 5346 5347 5349 5344 5340 5339 5339 5337 5332 5328 5325 5321 5318 5316 5315 5312 5309 5306 5304 5303 5303 5301 5295 5290 5283 5283 5280 5277 5272 5268 5264 5260 5257
5348 5347 5344 5339 5335 5335 5335 5334 5332 5328 5326 5325 5324 5321 5319 5315 5311 5307 5303 5302 5302 5301 5298 5294 5291 5289 5287 5285 5280 5275 5272 5270 5268 5266 5262 5256 5251 5247
5337 5335 5333 5329 5325 5323 5321 5317 5317 5315 5313 5310 5308 5305 5304 5302 5298 5295 5292 5290 5288 5289 5288 5284 5281 5279 5277 5275 5268 5264 5262 5259 5256 5253 5250 5251 5246 5239
5323 5321 5319 5315 5312 5312 5311 5306 5302 5299 5296 5296 5293 5290 5288 5286 5285 5283 5280 5278 5278 5277 5278 5277 5274 5271 5267 5264 5260 5252 5249 5247 5243 5240 5237 5238 5237 5235